Location: Conflandey
(47.7287°N, 6.0456°E)
Time: 20:59:29
(UTC+00:00)

CENTAUR R/B - Pass Details

Date: 24 October 2021
Orbit: 728 x 1459 km, 63.4° (Epoch: 26 November)

Event Time Altitude Azimuth Distance (km) Brightness Sun altitude
Rises 19:50:19 0° 317° (NW) 4,041 6.6 -33.8°
Reaches altitude 10° 19:53:02 10° 323° (NW) 3,176 5.8 -34.2°
Enters shadow 19:59:44 49° 18° (NNE) 1,678 3.6 -35.2°
